Weather History for KCDD - April, 2013

Change the Weather History Date:

Saturday, April 20, 2013

  Actual Average Record
Temperature  
Mean Temperature 16 °F -  
Max Temperature 42 °F 50 °F 71 °F (2007)
Min Temperature -9 °F 26 °F -9 °F (2013)
Degree Days  
Heating Degree Days 48    
Moisture  
Dew Point 4 °F    
Average Humidity 56    
Maximum Humidity 85    
Minimum Humidity 19    
Precipitation  
Precipitation 0.00 in - - ()
Sea Level Pressure  
Sea Level Pressure 30.21 in    
Wind  
Wind Speed 1 mph (NNE)    
Max Wind Speed 7 mph    
Max Gust Speed -    
Visibility 10 miles    
Events      
Averages and records for this station are not official NWS values.
T = Trace of Precipitation, MM = Missing Value Source: NWS Daily Summary

Daily Weather History Graph

Daily Weather History Graph

Search for Another Location

Airport or City:

Trip Planner

Search our weather history database for the weather conditions in past years. The results will help you decide how hot, cold, wet, or windy it might be!

Date:

Astronomy

Apr. 20, 2013 Rise Set
Actual Time 6:10 AM CDT 8:08 PM CDT
Civil Twilight 5:36 AM CDT 8:41 PM CDT
Nautical Twilight 4:55 AM CDT 9:23 PM CDT
Astronomical Twilight 4:09 AM CDT 10:09 PM CDT
Moon 2:29 PM CDT (4/20) 3:25 AM CDT (4/20)
Length of Visible Light 15h 05m
Length of Day
13h 58m
Waxing Gibbous, 71% of the Moon is Illuminated
Apr 20
Waxing Gibbous
Apr 25
Full
May 2
Last Quarter
May 9
New
May 17
First Quarter

Hourly Weather History & Observations

Time (CDT) Temp. Windchill Dew Point Humidity Pressure Visibility Wind Dir Wind Speed Gust Speed Precip Events Conditions
3:12 AM -4.0 °F - -9.4 °F 78% 30.04 in 10.0 mi Calm Calm - N/A   Clear
3:32 AM -5.8 °F - -9.4 °F 84% 30.05 in 10.0 mi Calm Calm - N/A   Clear
3:52 AM -5.8 °F - -11.2 °F 77% 30.06 in 10.0 mi Calm Calm - N/A   Clear
4:12 AM -5.8 °F - -11.2 °F 77% 30.07 in 10.0 mi Calm Calm - N/A   Clear
4:32 AM -7.6 °F - -11.2 °F 84% 30.08 in 10.0 mi Calm Calm - N/A   Clear
4:52 AM -7.6 °F - -11.2 °F 84% 30.09 in 10.0 mi Calm Calm - N/A   Clear
5:12 AM -7.6 °F - -13.0 °F 77% 30.10 in 10.0 mi Calm Calm - N/A   Clear
5:32 AM -9.4 °F - -14.8 °F 77% 30.11 in 10.0 mi Calm Calm - N/A   Clear
5:52 AM -9.4 °F - -14.8 °F 77% 30.12 in 10.0 mi Calm Calm - N/A   Clear
6:12 AM -9.4 °F - -14.8 °F 77% 30.13 in 10.0 mi Calm Calm - N/A   Clear
6:32 AM -9.4 °F - -14.8 °F 77% 30.14 in 10.0 mi Calm Calm - N/A   Clear
6:52 AM -9.4 °F - -14.8 °F 77% 30.15 in 10.0 mi Calm Calm - N/A   Clear
7:12 AM -7.6 °F - -11.2 °F 84% 30.15 in 10.0 mi Calm Calm - N/A   Clear
7:32 AM -4.0 °F - -7.6 °F 85% 30.17 in 10.0 mi Calm Calm - N/A   Clear
7:52 AM -0.4 °F - -5.8 °F 78% 30.17 in 10.0 mi Calm Calm - N/A   Clear
8:12 AM 5.0 °F - 1.4 °F 85% 30.19 in 10.0 mi Calm Calm - N/A   Clear
8:32 AM 10.4 °F - 6.8 °F 85% 30.19 in 10.0 mi Calm Calm - N/A   Clear
8:52 AM 15.8 °F 8.6 °F 10.4 °F 79% 30.20 in 10.0 mi NW 4.6 mph - N/A   Clear
9:12 AM 19.4 °F - 14.0 °F 80% 30.21 in 10.0 mi Calm Calm - N/A   Clear
9:32 AM 23.0 °F 18.4 °F 15.8 °F 74% 30.21 in 10.0 mi NW 3.5 mph - N/A   Clear
9:52 AM 24.8 °F 19.1 °F 15.8 °F 69% 30.21 in 10.0 mi North 4.6 mph - N/A   Clear
10:12 AM 26.6 °F 22.6 °F 12.2 °F 55% 30.22 in 10.0 mi North 3.5 mph - N/A   Clear
10:32 AM 26.6 °F 22.6 °F 12.2 °F 55% 30.23 in 10.0 mi North 3.5 mph - N/A   Clear
10:52 AM 28.4 °F 23.3 °F 12.2 °F 51% 30.23 in 10.0 mi NE 4.6 mph - N/A   Clear
11:12 AM 28.4 °F 23.3 °F 10.4 °F 47% 30.24 in 10.0 mi NNE 4.6 mph - N/A   Clear
11:32 AM 30.2 °F 25.4 °F 12.2 °F 47% 30.24 in 10.0 mi NE 4.6 mph - N/A   Clear
11:52 AM 32.0 °F - 12.2 °F 44% 30.24 in 10.0 mi Calm Calm - N/A   Clear
12:12 PM 33.8 °F 28.6 °F 15.8 °F 48% 30.24 in 10.0 mi North 5.8 mph - N/A   Unknown
12:32 PM 33.8 °F 29.6 °F 12.2 °F 41% 30.24 in 10.0 mi North 4.6 mph - N/A   Unknown
12:52 PM 35.6 °F 31.7 °F 12.2 °F 38% 30.24 in 10.0 mi NNE 4.6 mph - N/A   Unknown
1:12 PM 35.6 °F 31.7 °F 14.0 °F 41% 30.24 in 10.0 mi NE 4.6 mph - N/A   Unknown
1:32 PM 35.6 °F 31.7 °F 10.4 °F 35% 30.24 in 10.0 mi NNE 4.6 mph - N/A   Clear
1:52 PM 37.4 °F 32.8 °F 10.4 °F 33% 30.24 in 10.0 mi NNE 5.8 mph - N/A   Clear
2:12 PM 37.4 °F 34.9 °F 15.8 °F 41% 30.23 in 10.0 mi North 3.5 mph - N/A   Clear
2:32 PM 37.4 °F 33.8 °F 19.4 °F 48% 30.23 in 10.0 mi North 4.6 mph - N/A   Clear
2:52 PM 39.2 °F 37.0 °F 14.0 °F 36% 30.23 in 10.0 mi NNE 3.5 mph - N/A   Clear
3:12 PM 39.2 °F - 12.2 °F 33% 30.23 in 10.0 mi Calm Calm - N/A   Clear
3:32 PM 41.0 °F - 10.4 °F 29% 30.23 in 10.0 mi Calm Calm - N/A   Clear
3:52 PM 42.8 °F 41.1 °F 8.6 °F 25% 30.23 in 10.0 mi SSE 3.5 mph - N/A   Clear
4:12 PM 41.0 °F - 8.6 °F 26% 30.24 in 10.0 mi Calm Calm - N/A   Clear
4:32 PM 41.0 °F 38.0 °F 6.8 °F 24% 30.24 in 10.0 mi South 4.6 mph - N/A   Clear
4:52 PM 41.0 °F - 1.4 °F 19% 30.23 in 10.0 mi Calm Calm - N/A   Clear
5:12 PM 39.2 °F 35.0 °F 1.4 °F 21% 30.24 in 10.0 mi WSW 5.8 mph - N/A   Clear
5:32 PM 39.2 °F - 1.4 °F 21% 30.24 in 10.0 mi Calm Calm - N/A   Clear
5:52 PM 39.2 °F 34.2 °F 1.4 °F 21% 30.24 in 10.0 mi South 6.9 mph - N/A   Clear
6:12 PM 39.2 °F - 1.4 °F 21% 30.23 in 10.0 mi Calm Calm - N/A   Clear
6:32 PM 37.4 °F - 1.4 °F 22% 30.24 in 10.0 mi Calm Calm - N/A   Clear
6:52 PM 37.4 °F 32.8 °F 1.4 °F 22% 30.24 in 10.0 mi South 5.8 mph - N/A   Clear
7:12 PM 35.6 °F 32.8 °F 3.2 °F 26% 30.24 in 10.0 mi South 3.5 mph - N/A   Clear
7:32 PM 32.0 °F - 5.0 °F 32% 30.24 in 10.0 mi Calm Calm - N/A   Clear
7:52 PM 26.6 °F - 8.6 °F 47% 30.24 in 10.0 mi Calm Calm - N/A   Clear
8:12 PM 24.8 °F - 8.6 °F 50% 30.25 in 10.0 mi Calm Calm - N/A   Clear
8:32 PM 21.2 °F - 8.6 °F 58% 30.26 in 10.0 mi Calm Calm - N/A   Clear
8:52 PM 21.2 °F - 10.4 °F 63% 30.26 in 10.0 mi Calm Calm - N/A   Clear
9:12 PM 19.4 °F - 8.6 °F 63% 30.27 in 10.0 mi Calm Calm - N/A   Clear
9:52 PM 17.6 °F - 8.6 °F 68% 30.27 in 10.0 mi Calm Calm - N/A   Clear
10:12 PM 15.8 °F - 8.6 °F 73% 30.27 in 10.0 mi Calm Calm - N/A   Clear
10:32 PM 15.8 °F - 8.6 °F 73% 30.27 in 10.0 mi Calm Calm - N/A   Clear
10:52 PM 15.8 °F - 8.6 °F 73% 30.28 in 10.0 mi Calm Calm - N/A   Clear
11:12 PM 14.0 °F - 8.6 °F 79% 30.28 in 10.0 mi Calm Calm - N/A   Clear
11:32 PM 15.8 °F - 10.4 °F 79% 30.28 in 10.0 mi Calm Calm - N/A   Clear
11:52 PM 15.8 °F 10.2 °F 10.4 °F 79% 30.28 in 10.0 mi SSE 3.5 mph - N/A   Clear